CAPE
nan nan nan nan nan nan nan nan nan nan nan nan nan nan nan nan nan nan nan nan nan nan nan nan nan nan nan nan nan nan nan 0 0 0 1 1 2 2 2 3 3 3 2 1 1 1 0 0 0 nan nan nan nan nan nan nan nan 0 0 0 0 0 1 3 3 5 7 8 9 9 9 9 8 8 9 10 11 11 12 13 13 13 14 17 17 25
nan nan nan nan nan nan nan nan nan nan nan nan nan nan nan nan nan nan nan nan nan nan nan nan nan nan nan nan nan nan nan 0 0 0 1 2 3 3 3 3 3 3 2 1 1 1 0 nan nan nan nan nan nan nan nan nan nan 0 0 1 1 1 1 2 2 3 5 6 6 6 6 4 4 4 5 6 6 6 8 8 8 9 10 15 15 21
nan nan nan nan nan nan nan nan nan nan nan nan nan nan nan nan nan nan nan nan nan nan nan nan nan nan nan nan nan nan nan 0 1 1 2 3 5 5 4 5 5 3 1 1 1 0 nan nan nan nan nan nan nan nan nan nan nan 0 0 0 0 1 1 1 1 2 3 3 2 2 2 2 2 2 3 4 5 5 6 6 6 7 8 13 13 18
nan nan nan nan nan nan nan nan nan nan nan nan nan nan nan nan nan nan nan nan nan nan nan nan nan nan nan nan nan nan nan 0 2 2 4 5 5 5 4 3 3 1 0 nan nan nan nan nan nan nan nan nan nan nan nan nan nan nan 0 0 0 0 1 1 1 2 2 2 2 2 2 2 3 3 4 5 6 6 7 8 8 11 11 16 16 22
nan 0 nan nan nan nan nan nan nan nan nan nan nan nan nan nan nan nan nan nan nan nan nan nan nan nan nan nan nan nan nan nan 1 1 3 4 3 3 2 0 0 nan nan nan nan nan nan nan nan nan nan nan nan nan nan nan nan nan nan 0 0 0 0 1 1 2 2 3 3 3 3 4 5 5 5 8 9 9 12 13 13 15 17 21 21 26
nan nan nan nan nan nan nan nan nan nan nan nan nan nan nan nan nan nan nan nan nan nan nan nan nan nan nan nan nan nan nan nan nan nan 0 0 0 0 nan nan nan nan nan nan nan nan nan nan nan nan nan nan nan nan nan nan nan 0 0 0 0 1 1 2 2 2 2 3 4 4 3 5 5 5 7 9 12 12 14 16 16 17 19 23 23 28
nan nan nan nan nan nan nan nan nan nan nan nan nan nan nan nan nan nan nan nan nan nan nan nan nan nan nan nan nan nan nan nan nan nan nan nan nan nan nan nan nan nan nan nan nan nan nan nan nan nan nan nan nan nan 0 0 0 0 0 1 1 1 2 2 2 2 3 3 3 3 4 4 5 5 7 9 12 12 14 16 16 17 17 22 22 27
nan nan nan nan nan nan nan nan nan nan nan nan nan nan nan nan nan nan nan nan nan nan nan nan nan nan nan nan nan nan nan nan nan nan nan nan nan nan nan nan nan nan nan nan nan nan nan nan nan 0 0 1 1 1 1 1 1 1 1 1 1 1 2 2 2 3 3 3 4 4 5 5 6 6 6 5 6 6 8 11 11 12 13 14 14 17
nan nan nan nan nan nan nan nan nan nan nan nan nan nan nan nan nan nan nan nan nan nan nan nan nan nan nan nan nan nan nan nan nan nan nan nan nan nan nan nan nan nan nan nan nan nan nan nan nan nan nan nan nan nan nan nan nan 0 0 0 0 1 2 3 3 4 5 6 7 7 6 6 6 6 5 5 5 5 6 7 7 10 13 14 14 17
nan nan nan nan nan nan nan nan nan nan nan nan nan nan nan nan nan nan nan nan nan nan nan nan nan nan nan nan nan nan nan nan nan nan nan nan nan nan nan nan nan nan nan nan nan nan nan nan nan nan nan nan nan nan nan nan nan nan nan 0 0 1 2 4 4 6 8 8 9 9 8 8 7 7 6 5 5 5 5 5 5 8 10 15 15 20
nan nan nan nan nan nan nan nan nan nan nan nan nan nan nan nan nan nan nan nan nan nan nan nan nan nan nan nan nan nan nan nan nan nan nan nan nan nan nan nan nan nan nan nan nan nan nan nan nan nan nan nan nan nan nan nan nan nan nan nan nan 0 2 4 4 6 8 8 9 9 9 7 6 6 6 6 6 6 6 6 6 7 10 15 15 20
nan nan nan nan nan nan nan nan nan nan nan nan nan nan nan nan nan nan nan nan nan nan nan nan nan nan nan nan nan nan nan nan nan nan nan nan nan nan nan nan nan nan nan nan nan nan nan nan nan nan nan nan nan nan nan nan nan nan nan nan nan 0 2 3 3 6 7 8 8 8 7 7 7 7 7 8 8 8 8 9 9 9 11 15 15 21
nan nan nan nan nan nan nan nan nan nan nan nan nan nan nan nan nan nan nan nan nan nan nan nan nan nan nan nan nan nan nan nan nan nan nan nan nan nan nan nan nan nan nan nan nan nan nan nan nan nan nan nan nan nan nan nan nan nan nan 0 0 1 1 3 3 4 5 6 6 6 6 6 7 7 9 10 11 11 11 12 12 13 13 16 16 21
nan nan nan nan nan nan nan nan nan nan nan nan nan nan nan nan nan nan nan nan nan nan nan nan nan nan nan nan nan nan nan nan nan nan nan nan nan nan nan nan nan nan nan nan nan nan nan nan nan nan nan nan nan nan nan nan nan nan nan nan nan 0 1 1 1 2 4 4 5 5 6 7 9 9 11 13 14 14 14 15 15 16 16 17 17 20
nan nan nan nan nan nan nan nan nan nan nan nan nan nan nan nan nan nan nan nan nan nan nan nan nan nan nan nan nan nan nan nan nan nan nan nan nan nan nan nan nan nan nan nan nan nan nan nan nan nan nan nan nan nan nan nan nan nan nan nan nan nan 0 0 0 1 2 4 5 5 7 9 11 11 13 14 16 16 16 15 15 16 18 19 19 20
nan nan nan nan nan nan nan nan nan nan nan nan nan nan nan nan nan nan nan nan nan nan nan nan nan nan nan nan nan nan nan nan nan nan nan nan nan nan nan nan nan nan nan nan nan nan nan nan nan nan nan nan nan nan nan nan nan nan nan nan nan nan 0 1 1 1 2 4 6 6 8 10 12 12 14 14 14 14 15 15 15 16 18 18 18 18
nan nan nan nan nan nan nan nan nan nan nan nan nan nan nan nan nan nan nan nan nan nan nan nan nan nan nan nan nan nan nan nan nan nan nan nan nan nan nan nan nan nan nan nan nan nan nan nan nan nan nan nan nan nan nan nan nan nan nan nan nan 0 1 1 1 2 3 5 6 6 8 10 12 12 13 13 14 14 13 14 14 17 19 17 17 16
nan nan nan nan nan nan nan nan nan nan nan nan nan nan nan nan nan nan nan nan nan nan nan nan nan nan nan nan nan nan nan nan nan nan nan nan nan nan nan nan nan nan nan nan nan nan nan nan nan nan nan nan nan nan nan nan nan nan nan 0 0 0 1 2 2 2 4 6 7 7 9 10 11 11 11 11 11 11 12 15 15 16 18 16 16 16
nan nan nan nan nan nan nan nan nan nan nan nan nan nan nan nan nan nan nan nan nan nan nan nan nan nan nan nan nan nan nan nan nan nan nan nan nan nan nan nan nan nan nan nan nan nan nan nan nan nan nan nan nan nan nan nan nan 0 0 0 0 1 1 2 2 4 5 7 8 8 8 9 9 9 9 10 11 11 12 14 14 17 16 16 16 16
nan nan nan nan nan nan nan nan nan nan nan nan nan nan nan nan nan nan nan nan nan nan nan nan nan nan nan nan nan nan nan nan nan nan nan nan nan nan nan nan nan nan nan nan nan nan nan nan nan nan nan nan nan nan nan nan nan nan nan 0 0 0 1 2 2 4 5 6 7 7 7 7 7 7 8 8 10 10 11 14 14 16 16 16 16 18
nan nan nan nan nan nan nan nan nan nan nan nan nan nan nan nan nan nan nan nan nan nan nan nan nan nan nan nan nan nan nan nan nan nan nan nan nan nan nan nan nan nan nan nan nan nan nan nan nan nan nan nan nan nan nan nan nan nan nan nan nan 0 1 2 2 3 4 5 5 5 5 6 6 6 7 8 10 10 12 15 15 16 16 17 17 20
nan nan nan nan nan nan nan nan nan nan nan nan nan nan nan nan nan nan nan nan nan nan nan nan nan nan nan nan nan nan nan nan nan nan nan nan nan nan nan nan nan nan nan nan nan nan nan nan nan nan nan nan nan nan nan nan nan nan nan nan nan 0 0 1 1 2 3 4 5 5 5 6 7 7 8 10 11 11 13 15 15 16 16 18 18 21
nan nan nan nan nan nan nan nan nan nan nan nan nan nan nan nan nan nan nan nan nan nan nan nan nan nan nan nan nan nan nan nan nan nan nan nan nan nan nan nan nan nan nan nan nan nan nan nan nan nan nan nan nan nan nan nan nan nan nan nan nan 0 1 1 1 1 2 4 4 4 7 8 9 9 11 12 12 12 14 14 14 15 17 19 19 21
nan nan nan nan nan nan nan nan nan nan nan nan nan nan nan nan nan nan nan nan nan nan nan nan nan nan nan nan nan nan nan nan nan nan nan nan nan nan nan nan nan nan nan nan nan nan nan nan nan nan nan nan nan nan nan nan nan nan nan nan nan 0 0 1 1 1 3 5 7 7 9 10 12 12 13 13 14 14 15 15 15 15 17 18 18 22
nan nan nan nan nan nan nan nan nan nan nan nan nan nan nan nan nan nan nan nan nan nan nan nan nan nan nan nan nan nan nan nan nan nan nan nan nan nan nan nan nan nan nan nan nan nan nan nan nan nan nan nan nan nan nan nan nan nan nan nan nan nan 0 2 2 4 6 8 8 8 11 12 12 12 12 14 14 14 15 16 16 17 19 19 19 20
nan nan nan nan nan nan nan nan nan nan nan nan nan nan nan nan nan nan nan nan nan 1 0 nan nan nan nan nan nan nan nan nan nan nan nan nan nan nan nan nan nan nan nan nan nan nan nan nan nan nan nan nan nan nan nan nan nan nan nan nan nan 1 3 4 4 6 7 7 8 8 8 9 9 9 10 11 13 13 16 16 16 18 19 21 21 19
nan nan nan nan nan nan nan nan nan nan nan nan nan nan nan nan nan nan 1 0 0 2 1 1 1 nan nan nan nan nan nan nan nan nan nan nan nan nan nan nan nan nan nan nan nan nan nan nan nan nan nan nan nan nan nan nan nan nan nan 0 0 2 2 1 1 1 1 1 2 2 4 4 6 6 9 11 14 14 17 17 17 20 20 20 20 21
nan nan nan nan nan nan nan nan nan nan 1 2 6 6 6 nan nan nan nan nan nan 0 0 nan nan nan nan nan nan nan nan nan nan nan nan nan nan nan nan nan nan nan nan nan nan nan nan nan nan nan nan nan nan nan nan nan nan nan nan nan nan nan nan nan nan nan nan nan 1 1 3 5 8 8 10 12 15 15 18 20 20 20 20 15 15 4
nan nan nan nan nan nan nan 1 1 1 3 6 8 8 2 nan nan nan nan nan nan nan nan nan nan nan nan nan nan nan nan nan nan nan nan nan nan nan nan nan nan nan nan nan nan nan nan nan nan nan nan nan nan nan nan nan nan nan nan nan nan nan nan nan nan nan nan 0 2 2 4 6 9 9 12 16 18 18 19 20 20 21 17 10 10 1
nan nan nan nan nan nan nan nan nan nan 4 5 8 8 1 nan nan nan nan nan nan nan nan 0 0 nan nan nan nan nan nan nan nan nan nan nan nan nan nan nan nan nan nan nan nan nan nan nan nan nan nan nan nan nan nan nan nan nan nan nan nan nan nan nan nan nan 0 2 4 4 6 8 11 11 14 16 17 17 18 20 20 16 7 2 2 0
nan nan nan nan nan nan nan nan nan nan 3 7 4 4 nan nan nan nan nan nan nan nan nan nan nan nan nan nan nan nan nan nan nan nan nan nan nan nan nan nan nan nan nan nan nan nan nan nan nan nan nan nan nan nan nan nan nan nan nan nan nan nan nan nan nan 0 1 3 4 4 6 8 11 11 12 13 15 15 15 18 18 13 3 nan nan nan
nan nan nan nan nan nan nan nan nan nan nan nan nan nan nan nan nan nan nan nan nan nan nan nan nan nan nan 0 nan nan nan nan nan nan nan nan nan nan nan nan nan nan nan nan nan nan nan nan nan nan nan nan nan nan nan nan nan nan nan nan nan nan nan nan nan 0 0 3 5 5 6 6 7 7 7 6 8 8 10 11 11 11 0 nan nan 0
nan nan nan nan nan nan nan nan nan nan nan nan nan nan nan nan nan nan nan nan nan nan nan nan nan nan nan nan nan nan nan nan nan nan nan nan nan nan nan nan nan nan nan nan nan nan nan nan nan nan nan nan nan nan nan nan nan nan nan nan nan nan nan nan nan nan nan nan nan nan 2 3 4 4 4 6 8 8 10 13 13 15 13 1 1 0
nan nan nan nan nan nan nan nan nan nan nan nan nan nan nan nan nan nan nan nan nan nan nan nan nan nan nan nan nan nan nan nan nan nan 2 nan nan nan nan nan nan nan nan nan nan nan nan nan nan nan nan nan nan nan nan nan nan nan nan nan nan nan nan nan nan nan nan nan nan nan nan nan 0 0 1 4 6 6 10 15 15 19 21 12 12 4
nan nan nan nan nan nan nan nan nan nan nan nan nan nan nan nan nan nan nan nan nan nan nan nan nan nan nan nan nan nan nan nan nan nan 3 nan nan nan nan nan nan nan nan nan nan nan nan nan nan 1 nan nan nan nan nan nan nan nan nan nan nan nan nan nan nan nan nan nan nan nan nan nan nan nan nan 1 6 6 12 15 15 19 20 21 21 12
nan nan nan nan nan nan nan nan nan nan nan nan nan nan nan nan nan nan nan nan nan nan nan nan nan nan nan nan nan nan nan nan nan nan 4 0 nan nan nan nan nan 0 nan 0 0 0 nan nan nan 1 1 nan nan nan nan nan nan nan nan nan nan nan nan nan nan nan nan nan nan nan nan nan nan nan nan 5 10 10 12 13 13 14 14 15 15 14
nan nan nan nan nan nan nan nan nan nan nan nan nan nan nan nan nan nan nan nan nan nan nan nan nan nan nan nan nan nan nan nan nan nan 1 0 nan nan 0 0 0 2 1 1 1 1 0 nan nan 0 nan nan nan nan nan nan nan nan nan nan nan nan nan nan nan nan nan nan nan nan nan nan nan nan nan 4 4 4 7 10 10 10 12 13 13 15
nan nan nan nan nan nan nan nan nan nan nan nan nan nan nan nan nan nan nan nan nan nan nan nan nan nan nan 2 nan nan nan nan nan nan nan nan nan nan 0 1 1 2 1 1 1 1 1 nan nan nan nan nan nan nan nan nan nan nan nan nan nan nan nan nan nan nan nan nan nan nan nan nan nan nan nan nan nan nan nan nan nan nan 7 7 7 13
nan nan nan 0 0 nan nan nan nan nan nan nan nan nan nan nan nan nan nan nan nan nan nan nan nan nan nan nan nan nan nan nan nan nan nan nan nan nan 1 2 2 2 2 2 2 1 1 0 0 nan nan nan nan nan nan nan nan nan nan nan nan nan nan nan nan nan nan nan nan nan nan nan nan nan nan nan nan nan nan nan nan nan nan nan nan nan
1 1 nan nan nan nan nan nan nan nan nan nan nan nan nan nan nan nan nan nan nan nan nan nan nan nan nan nan nan nan nan nan nan nan nan nan nan nan 1 1 1 2 2 1 1 1 1 0 0 0 1 nan nan nan nan nan nan nan 0 nan nan nan nan nan nan nan nan nan nan nan nan nan nan nan nan nan nan nan nan nan nan nan nan nan nan nan
0 0 nan nan nan nan nan nan nan nan nan nan nan nan nan nan nan nan nan nan nan nan nan nan nan nan nan nan nan nan nan nan nan nan nan nan nan nan 0 1 1 1 2 1 1 1 2 0 0 1 0 nan 0 0 nan nan nan 1 3 nan nan nan nan nan nan nan nan nan nan nan nan nan nan nan nan nan nan nan nan nan nan nan nan nan nan nan
1 nan nan nan nan nan nan nan nan nan nan nan nan nan nan nan nan nan nan nan nan nan nan nan nan nan nan nan nan nan nan nan nan nan nan nan nan nan nan 0 0 1 1 1 1 1 2 1 1 0 0 0 nan nan nan nan nan 0 1 nan nan nan nan nan nan nan nan nan nan nan nan nan nan nan nan nan nan nan nan nan nan nan nan nan nan nan
nan nan nan nan nan nan nan nan nan nan nan nan nan nan nan nan nan nan nan nan nan nan nan nan nan nan nan nan nan nan nan nan nan nan nan nan nan nan nan nan nan nan 0 0 0 0 1 3 3 1 0 0 nan nan nan nan nan nan nan 1 1 0 nan nan nan nan nan nan nan nan nan nan nan nan nan nan nan nan nan nan nan nan nan nan nan nan
nan nan nan nan nan nan nan nan nan nan nan nan nan nan nan nan nan nan nan nan nan nan nan nan nan nan nan nan nan nan nan nan nan nan nan nan nan nan nan nan nan nan 0 0 0 1 0 1 1 0 nan nan nan nan nan nan nan nan nan nan nan nan nan nan nan nan nan nan nan nan nan nan nan nan nan nan nan nan nan nan nan nan nan nan nan nan
nan nan nan nan nan nan nan nan nan nan nan nan nan nan nan nan nan nan nan nan nan nan nan nan nan nan nan nan nan nan nan nan nan nan nan nan 10 10 0 nan nan nan 0 1 1 2 1 0 0 0 0 0 0 0 0 nan nan nan 0 0 0 nan nan nan nan nan nan nan nan nan nan nan nan nan nan nan nan nan nan nan nan nan nan nan nan nan
nan nan nan nan nan nan nan nan nan nan nan nan nan nan nan nan nan nan nan nan nan nan nan nan nan nan nan nan nan nan nan nan nan nan nan nan nan nan nan nan nan 0 0 2 2 3 2 1 1 1 1 1 1 1 nan nan nan nan nan nan nan nan nan nan nan nan nan nan nan nan nan nan nan nan nan nan nan nan nan nan nan nan nan nan nan nan
nan nan nan nan nan nan nan nan nan nan nan nan nan nan nan nan nan nan nan nan nan nan nan nan nan nan nan nan nan nan nan nan nan nan nan nan nan nan nan nan nan 0 nan 0 0 0 2 2 2 2 2 1 0 0 nan nan nan nan nan nan nan nan nan nan nan nan nan nan nan nan nan nan nan nan nan nan nan nan nan nan nan nan nan nan nan nan
nan nan nan nan nan nan nan nan nan nan nan nan nan nan nan nan nan nan nan nan nan nan nan nan nan nan nan nan nan nan nan nan nan nan nan nan nan nan nan nan nan nan 0 1 1 2 2 1 1 1 0 nan nan nan nan nan nan nan nan nan nan nan nan nan nan nan nan nan nan nan nan nan nan nan nan nan nan nan nan nan nan nan nan nan nan nan
nan nan nan nan nan nan nan nan nan nan nan nan nan nan nan nan 4 4 nan nan nan nan nan nan nan nan nan nan nan nan nan nan nan nan nan nan nan nan nan nan nan nan nan nan nan 0 0 0 0 nan nan nan nan nan nan nan nan nan nan nan nan nan nan nan nan nan nan nan nan nan nan nan nan nan nan nan nan nan nan nan nan nan nan nan nan nan
nan nan nan nan nan nan nan nan nan nan nan nan nan nan nan nan nan nan nan nan nan nan nan nan nan nan nan nan nan nan nan nan nan nan nan nan nan nan nan nan nan nan 0 nan nan nan nan nan nan nan nan nan nan nan nan nan nan nan nan nan nan nan nan nan nan nan nan nan nan nan nan nan nan nan nan nan nan nan nan nan nan nan nan nan nan nan
nan nan nan nan nan nan nan nan nan nan nan nan nan nan nan nan nan nan nan nan nan nan nan nan nan nan nan nan nan nan nan nan nan nan nan nan nan nan nan nan nan 0 0 nan nan nan nan nan nan nan nan 2 nan nan nan nan nan nan nan nan nan nan nan nan nan nan nan nan nan nan nan nan nan nan nan nan nan nan nan nan nan nan nan nan nan nan
CIN
nan nan nan nan nan nan nan nan nan nan nan nan nan nan nan nan nan nan nan nan nan nan nan nan nan nan nan nan nan nan nan -0 -0 -0 -0 -0 -0 -0 -0 -0 -0 -0 -0 -0 -0 -0 -0 -0 -0 nan nan nan nan nan nan nan nan -0 -0 -0 -0 -0 -0 -0 -0 -0 -0 -0 -0 -0 -0 -0 -0 -0 -0 -0 -0 -0 -0 -0 -0 -0 -0 -0 -0 -0
nan nan nan nan nan nan nan nan nan nan nan nan nan nan nan nan nan nan nan nan nan nan nan nan nan nan nan nan nan nan nan -0 -0 -0 -0 -0 -0 -0 -0 -0 -0 -0 -0 -0 -0 -0 -0 nan nan nan nan nan nan nan nan nan nan -0 -0 -0 -0 -0 -0 -0 -0 -0 -0 -0 -0 -0 -0 -0 -0 -0 -0 -0 -0 -0 -0 -0 -0 -0 -0 -0 -0 -0
nan nan nan nan nan nan nan nan nan nan nan nan nan nan nan nan nan nan nan nan nan nan nan nan nan nan nan nan nan nan nan -0 -0 -0 -0 -0 -0 -0 -0 -0 -0 -0 -0 -0 -0 -0 nan nan nan nan nan nan nan nan nan nan nan -0 -0 -0 -0 -0 -0 -0 -0 -0 -0 -0 -0 -0 -0 -0 -0 -0 -0 -0 -0 -0 -0 -0 -0 -0 -0 -0 -0 -0
nan nan nan nan nan nan nan nan nan nan nan nan nan nan nan nan nan nan nan nan nan nan nan nan nan nan nan nan nan nan nan -0 -0 -0 -0 -0 -0 -0 -0 -0 -0 -0 -0 nan nan nan nan nan nan nan nan nan nan nan nan nan nan nan -0 -0 -0 -0 -0 -0 -0 -0 -0 -0 -0 -0 -0 -0 -0 -0 -0 -0 -0 -0 -0 -0 -0 -0 -0 -0 -0 -0
nan -0 nan nan nan nan nan nan nan nan nan nan nan nan nan nan nan nan nan nan nan nan nan nan nan nan nan nan nan nan nan nan -0 -0 -0 -0 -0 -0 -0 -0 -0 nan nan nan nan nan nan nan nan nan nan nan nan nan nan nan nan nan nan -0 -0 -0 -0 -0 -0 -0 -0 -0 -0 -0 -0 -0 -0 -0 -0 -0 -0 -0 -0 -0 -0 -0 -0 -0 -0 -0
nan nan nan nan nan nan nan nan nan nan nan nan nan nan nan nan nan nan nan nan nan nan nan nan nan nan nan nan nan nan nan nan nan nan -0 -0 -0 -0 nan nan nan nan nan nan nan nan nan nan nan nan nan nan nan nan nan nan nan -0 -0 -0 -0 -0 -0 -0 -0 -0 -0 -0 -0 -0 -0 -0 -0 -0 -0 -0 -0 -0 -0 -0 -0 -0 -0 -0 -0 -0
nan nan nan nan nan nan nan nan nan nan nan nan nan nan nan nan nan nan nan nan nan nan nan nan nan nan nan nan nan nan nan nan nan nan nan nan nan nan nan nan nan nan nan nan nan nan nan nan nan nan nan nan nan nan -0 -0 -0 -0 -0 -0 -0 -0 -0 -0 -0 -0 -0 -0 -0 -0 -0 -0 -0 -0 -0 -0 -0 -0 -0 -0 -0 -0 -0 -0 -0 -0
nan nan nan nan nan nan nan nan nan nan nan nan nan nan nan nan nan nan nan nan nan nan nan nan nan nan nan nan nan nan nan nan nan nan nan nan nan nan nan nan nan nan nan nan nan nan nan nan nan -0 -0 -0 -0 -0 -0 -0 -0 -0 -0 -0 -0 -0 -0 -0 -0 -0 -0 -0 -0 -0 -0 -0 -0 -0 -0 -0 -0 -0 -0 -0 -0 -0 -0 -0 -0 -0
nan nan nan nan nan nan nan nan nan nan nan nan nan nan nan nan nan nan nan nan nan nan nan nan nan nan nan nan nan nan nan nan nan nan nan nan nan nan nan nan nan nan nan nan nan nan nan nan nan nan nan nan nan nan nan nan nan -0 -0 -0 -0 -0 -0 -0 -0 -0 -0 -0 -0 -0 -0 -0 -0 -0 -0 -0 -0 -0 -0 -0 -0 -0 -0 -0 -0 -0
nan nan nan nan nan nan nan nan nan nan nan nan nan nan nan nan nan nan nan nan nan nan nan nan nan nan nan nan nan nan nan nan nan nan nan nan nan nan nan nan nan nan nan nan nan nan nan nan nan nan nan nan nan nan nan nan nan nan nan -0 -0 -0 -0 -0 -0 -0 -0 -0 -0 -0 -0 -0 -0 -0 -0 -0 -0 -0 -0 -0 -0 -0 -0 -0 -0 -0
nan nan nan nan nan nan nan nan nan nan nan nan nan nan nan nan nan nan nan nan nan nan nan nan nan nan nan nan nan nan nan nan nan nan nan nan nan nan nan nan nan nan nan nan nan nan nan nan nan nan nan nan nan nan nan nan nan nan nan nan nan -0 -0 -0 -0 -0 -0 -0 -0 -0 -0 -0 -0 -0 -0 -0 -0 -0 -0 -0 -0 -0 -0 -0 -0 -0
nan nan nan nan nan nan nan nan nan nan nan nan nan nan nan nan nan nan nan nan nan nan nan nan nan nan nan nan nan nan nan nan nan nan nan nan nan nan nan nan nan nan nan nan nan nan nan nan nan nan nan nan nan nan nan nan nan nan nan nan nan -0 -0 -0 -0 -0 -0 -0 -0 -0 -0 -0 -0 -0 -0 -0 -0 -0 -0 -0 -0 -0 -0 -0 -0 -0
nan nan nan nan nan nan nan nan nan nan nan nan nan nan nan nan nan nan nan nan nan nan nan nan nan nan nan nan nan nan nan nan nan nan nan nan nan nan nan nan nan nan nan nan nan nan nan nan nan nan nan nan nan nan nan nan nan nan nan -0 -0 -0 -0 -0 -0 -0 -0 -0 -0 -0 -0 -0 -0 -0 -0 -0 -0 -0 -0 -0 -0 -0 -0 -0 -0 -0
nan nan nan nan nan nan nan nan nan nan nan nan nan nan nan nan nan nan nan nan nan nan nan nan nan nan nan nan nan nan nan nan nan nan nan nan nan nan nan nan nan nan nan nan nan nan nan nan nan nan nan nan nan nan nan nan nan nan nan nan nan -0 -0 -0 -0 -0 -0 -0 -0 -0 -0 -0 -0 -0 -0 -0 -0 -0 -0 -0 -0 -0 -0 -0 -0 -0
nan nan nan nan nan nan nan nan nan nan nan nan nan nan nan nan nan nan nan nan nan nan nan nan nan nan nan nan nan nan nan nan nan nan nan nan nan nan nan nan nan nan nan nan nan nan nan nan nan nan nan nan nan nan nan nan nan nan nan nan nan nan -0 -0 -0 -0 -0 -0 -0 -0 -0 -0 -0 -0 -0 -0 -0 -0 -0 -0 -0 -0 -0 -0 -0 -0
nan nan nan nan nan nan nan nan nan nan nan nan nan nan nan nan nan nan nan nan nan nan nan nan nan nan nan nan nan nan nan nan nan nan nan nan nan nan nan nan nan nan nan nan nan nan nan nan nan nan nan nan nan nan nan nan nan nan nan nan nan nan -0 -0 -0 -0 -0 -0 -0 -0 -0 -0 -0 -0 -0 -0 -0 -0 -0 -0 -0 -0 -0 -0 -0 -0
nan nan nan nan nan nan nan nan nan nan nan nan nan nan nan nan nan nan nan nan nan nan nan nan nan nan nan nan nan nan nan nan nan nan nan nan nan nan nan nan nan nan nan nan nan nan nan nan nan nan nan nan nan nan nan nan nan nan nan nan nan -0 -0 -0 -0 -0 -0 -0 -0 -0 -0 -0 -0 -0 -0 -0 -0 -0 -0 -0 -0 -0 -0 -0 -0 -0
nan nan nan nan nan nan nan nan nan nan nan nan nan nan nan nan nan nan nan nan nan nan nan nan nan nan nan nan nan nan nan nan nan nan nan nan nan nan nan nan nan nan nan nan nan nan nan nan nan nan nan nan nan nan nan nan nan nan nan -0 -0 -0 -0 -0 -0 -0 -0 -0 -0 -0 -0 -0 -0 -0 -0 -0 -0 -0 -0 -0 -0 -0 -0 -0 -0 -0
nan nan nan nan nan nan nan nan nan nan nan nan nan nan nan nan nan nan nan nan nan nan nan nan nan nan nan nan nan nan nan nan nan nan nan nan nan nan nan nan nan nan nan nan nan nan nan nan nan nan nan nan nan nan nan nan nan -0 -0 -0 -0 -0 -0 -0 -0 -0 -0 -0 -0 -0 -0 -0 -0 -0 -0 -0 -0 -0 -0 -0 -0 -0 -0 -0 -0 -0
nan nan nan nan nan nan nan nan nan nan nan nan nan nan nan nan nan nan nan nan nan nan nan nan nan nan nan nan nan nan nan nan nan nan nan nan nan nan nan nan nan nan nan nan nan nan nan nan nan nan nan nan nan nan nan nan nan nan nan -0 -0 -0 -0 -0 -0 -0 -0 -0 -0 -0 -0 -0 -0 -0 -0 -0 -0 -0 -0 -0 -0 -0 -0 -0 -0 -0
nan nan nan nan nan nan nan nan nan nan nan nan nan nan nan nan nan nan nan nan nan nan nan nan nan nan nan nan nan nan nan nan nan nan nan nan nan nan nan nan nan nan nan nan nan nan nan nan nan nan nan nan nan nan nan nan nan nan nan nan nan -0 -0 -0 -0 -0 -0 -0 -0 -0 -0 -0 -0 -0 -0 -0 -0 -0 -0 -0 -0 -0 -0 -0 -0 -0
nan nan nan nan nan nan nan nan nan nan nan nan nan nan nan nan nan nan nan nan nan nan nan nan nan nan nan nan nan nan nan nan nan nan nan nan nan nan nan nan nan nan nan nan nan nan nan nan nan nan nan nan nan nan nan nan nan nan nan nan nan -0 -0 -0 -0 -0 -0 -0 -0 -0 -0 -0 -0 -0 -0 -0 -0 -0 -0 -0 -0 -0 -0 -0 -0 -0
nan nan nan nan nan nan nan nan nan nan nan nan nan nan nan nan nan nan nan nan nan nan nan nan nan nan nan nan nan nan nan nan nan nan nan nan nan nan nan nan nan nan nan nan nan nan nan nan nan nan nan nan nan nan nan nan nan nan nan nan nan -0 -0 -0 -0 -0 -0 -0 -0 -0 -0 -0 -0 -0 -0 -0 -0 -0 -0 -0 -0 -0 -0 -0 -0 -0
nan nan nan nan nan nan nan nan nan nan nan nan nan nan nan nan nan nan nan nan nan nan nan nan nan nan nan nan nan nan nan nan nan nan nan nan nan nan nan nan nan nan nan nan nan nan nan nan nan nan nan nan nan nan nan nan nan nan nan nan nan -0 -0 -0 -0 -0 -0 -0 -0 -0 -0 -0 -0 -0 -0 -0 -0 -0 -0 -0 -0 -0 -0 -0 -0 -0
nan nan nan nan nan nan nan nan nan nan nan nan nan nan nan nan nan nan nan nan nan nan nan nan nan nan nan nan nan nan nan nan nan nan nan nan nan nan nan nan nan nan nan nan nan nan nan nan nan nan nan nan nan nan nan nan nan nan nan nan nan nan -0 -0 -0 -0 -0 -0 -0 -0 -0 -0 -0 -0 -0 -0 -0 -0 -0 -0 -0 -0 -0 -0 -0 -0
nan nan nan nan nan nan nan nan nan nan nan nan nan nan nan nan nan nan nan nan nan -13 -12 nan nan nan nan nan nan nan nan nan nan nan nan nan nan nan nan nan nan nan nan nan nan nan nan nan nan nan nan nan nan nan nan nan nan nan nan nan nan -0 -0 -0 -0 -0 -0 -0 -0 -0 -0 -0 -0 -0 -0 -0 -0 -0 -0 -0 -0 -0 -0 -0 -0 -0
nan nan nan nan nan nan nan nan nan nan nan nan nan nan nan nan nan nan -4 -12 -12 -10 -8 -3 -3 nan nan nan nan nan nan nan nan nan nan nan nan nan nan nan nan nan nan nan nan nan nan nan nan nan nan nan nan nan nan nan nan nan nan -0 -0 -0 -0 -0 -0 -0 -0 -0 -0 -0 -0 -0 -0 -0 -0 -0 -0 -0 -0 -0 -0 -0 -0 -0 -0 -0
nan nan nan nan nan nan nan nan nan nan -0 -0 -0 -0 -12 nan nan nan nan nan nan -20 -11 nan nan nan nan nan nan nan nan nan nan nan nan nan nan nan nan nan nan nan nan nan nan nan nan nan nan nan nan nan nan nan nan nan nan nan nan nan nan nan nan nan nan nan nan nan -0 -0 -0 -0 -0 -0 -0 -0 -0 -0 -0 -0 -0 -0 -0 -0 -0 -9
nan nan nan nan nan nan nan -0 -0 -0 -0 -0 -0 -0 -13 nan nan nan nan nan nan nan nan nan nan nan nan nan nan nan nan nan nan nan nan nan nan nan nan nan nan nan nan nan nan nan nan nan nan nan nan nan nan nan nan nan nan nan nan nan nan nan nan nan nan nan nan -0 -0 -0 -0 -0 -0 -0 -0 -0 -0 -0 -0 -0 -0 -0 -0 -2 -2 -15
nan nan nan nan nan nan nan nan nan nan -0 -0 -0 -0 -15 nan nan nan nan nan nan nan nan -5 -5 nan nan nan nan nan nan nan nan nan nan nan nan nan nan nan nan nan nan nan nan nan nan nan nan nan nan nan nan nan nan nan nan nan nan nan nan nan nan nan nan nan -0 -0 -0 -0 -0 -0 -0 -0 -0 -0 -0 -0 -0 -0 -0 -0 -4 -14 -14 -22
nan nan nan nan nan nan nan nan nan nan -0 -0 -0 -0 nan nan nan nan nan nan nan nan nan nan nan nan nan nan nan nan nan nan nan nan nan nan nan nan nan nan nan nan nan nan nan nan nan nan nan nan nan nan nan nan nan nan nan nan nan nan nan nan nan nan nan -0 -0 -0 -0 -0 -0 -0 -0 -0 -0 -0 -0 -0 -0 -0 -0 -0 -12 nan nan nan
nan nan nan nan nan nan nan nan nan nan nan nan nan nan nan nan nan nan nan nan nan nan nan nan nan nan nan -6 nan nan nan nan nan nan nan nan nan nan nan nan nan nan nan nan nan nan nan nan nan nan nan nan nan nan nan nan nan nan nan nan nan nan nan nan nan -0 -0 -0 -0 -0 -0 -0 -0 -0 -0 -0 -0 -0 -0 -0 -0 -0 -21 nan nan -19
nan nan nan nan nan nan nan nan nan nan nan nan nan nan nan nan nan nan nan nan nan nan nan nan nan nan nan nan nan nan nan nan nan nan nan nan nan nan nan nan nan nan nan nan nan nan nan nan nan nan nan nan nan nan nan nan nan nan nan nan nan nan nan nan nan nan nan nan nan nan -0 -0 -0 -0 -0 -0 -0 -0 -0 -0 -0 -0 -0 -22 -22 -23
nan nan nan nan nan nan nan nan nan nan nan nan nan nan nan nan nan nan nan nan nan nan nan nan nan nan nan nan nan nan nan nan nan nan -17 nan nan nan nan nan nan nan nan nan nan nan nan nan nan nan nan nan nan nan nan nan nan nan nan nan nan nan nan nan nan nan nan nan nan nan nan nan -0 -0 -0 -0 -0 -0 -0 -0 -0 -0 -0 -2 -2 -13
nan nan nan nan nan nan nan nan nan nan nan nan nan nan nan nan nan nan nan nan nan nan nan nan nan nan nan nan nan nan nan nan nan nan -13 nan nan nan nan nan nan nan nan nan nan nan nan nan nan -2 nan nan nan nan nan nan nan nan nan nan nan nan nan nan nan nan nan nan nan nan nan nan nan nan nan -0 -0 -0 -0 -0 -0 -0 -0 -0 -0 -0
nan nan nan nan nan nan nan nan nan nan nan nan nan nan nan nan nan nan nan nan nan nan nan nan nan nan nan nan nan nan nan nan nan nan -6 -25 nan nan nan nan nan -12 nan -6 -6 -6 nan nan nan -1 -0 nan nan nan nan nan nan nan nan nan nan nan nan nan nan nan nan nan nan nan nan nan nan nan nan -0 -0 -0 -0 -0 -0 -0 -0 -0 -0 -0
nan nan nan nan nan nan nan nan nan nan nan nan nan nan nan nan nan nan nan nan nan nan nan nan nan nan nan nan nan nan nan nan nan nan -11 -28 nan nan -10 -8 -8 -6 -8 -5 -5 -5 -5 nan nan -2 nan nan nan nan nan nan nan nan nan nan nan nan nan nan nan nan nan nan nan nan nan nan nan nan nan -0 -0 -0 -0 -0 -0 -0 -0 -0 -0 -0
nan nan nan nan nan nan nan nan nan nan nan nan nan nan nan nan nan nan nan nan nan nan nan nan nan nan nan -10 nan nan nan nan nan nan nan nan nan nan -10 -7 -7 -5 -7 -6 -6 -5 -4 nan nan nan nan nan nan nan nan nan nan nan nan nan nan nan nan nan nan nan nan nan nan nan nan nan nan nan nan nan nan nan nan nan nan nan -0 -0 -0 -0
nan nan nan -14 -14 nan nan nan nan nan nan nan nan nan nan nan nan nan nan nan nan nan nan nan nan nan nan nan nan nan nan nan nan nan nan nan nan nan -8 -5 -5 -5 -7 -9 -9 -7 -5 -4 -4 nan nan nan nan nan nan nan nan nan nan nan nan nan nan nan nan nan nan nan nan nan nan nan nan nan nan nan nan nan nan nan nan nan nan nan nan nan
-15 -16 nan nan nan nan nan nan nan nan nan nan nan nan nan nan nan nan nan nan nan nan nan nan nan nan nan nan nan nan nan nan nan nan nan nan nan nan -11 -6 -6 -6 -7 -10 -10 -10 -7 -5 -5 -4 -2 nan nan nan nan nan nan nan -3 nan nan nan nan nan nan nan nan nan nan nan nan nan nan nan nan nan nan nan nan nan nan nan nan nan nan nan
-14 -19 nan nan nan nan nan nan nan nan nan nan nan nan nan nan nan nan nan nan nan nan nan nan nan nan nan nan nan nan nan nan nan nan nan nan nan nan -19 -10 -10 -8 -7 -9 -9 -9 -6 -6 -6 -5 -5 nan -3 -3 nan nan nan -0 -0 nan nan nan nan nan nan nan nan nan nan nan nan nan nan nan nan nan nan nan nan nan nan nan nan nan nan nan
-8 nan nan nan nan nan nan nan nan nan nan nan nan nan nan nan nan nan nan nan nan nan nan nan nan nan nan nan nan nan nan nan nan nan nan nan nan nan nan -20 -20 -12 -10 -9 -9 -8 -6 -4 -4 -4 -7 -7 nan nan nan nan nan -3 -1 nan nan nan nan nan nan nan nan nan nan nan nan nan nan nan nan nan nan nan nan nan nan nan nan nan nan nan
nan nan nan nan nan nan nan nan nan nan nan nan nan nan nan nan nan nan nan nan nan nan nan nan nan nan nan nan nan nan nan nan nan nan nan nan nan nan nan nan nan nan -17 -9 -9 -7 -6 -2 -2 -6 -8 -8 nan nan nan nan nan nan nan -5 -5 -6 nan nan nan nan nan nan nan nan nan nan nan nan nan nan nan nan nan nan nan nan nan nan nan nan
nan nan nan nan nan nan nan nan nan nan nan nan nan nan nan nan nan nan nan nan nan nan nan nan nan nan nan nan nan nan nan nan nan nan nan nan nan nan nan nan nan nan -23 -10 -10 -6 -7 -5 -5 -9 nan nan nan nan nan nan nan nan nan nan nan nan nan nan nan nan nan nan nan nan nan nan nan nan nan nan nan nan nan nan nan nan nan nan nan nan
nan nan nan nan nan nan nan nan nan nan nan nan nan nan nan nan nan nan nan nan nan nan nan nan nan nan nan nan nan nan nan nan nan nan nan nan -8 -8 -41 nan nan nan -28 -13 -13 -6 -6 -6 -6 -7 -10 -10 -8 -8 -6 nan nan nan -4 -5 -5 nan nan nan nan nan nan nan nan nan nan nan nan nan nan nan nan nan nan nan nan nan nan nan nan nan
nan nan nan nan nan nan nan nan nan nan nan nan nan nan nan nan nan nan nan nan nan nan nan nan nan nan nan nan nan nan nan nan nan nan nan nan nan nan nan nan nan -36 -33 -20 -20 -13 -7 -6 -6 -6 -8 -7 -7 -7 nan nan nan nan nan nan nan nan nan nan nan nan nan nan nan nan nan nan nan nan nan nan nan nan nan nan nan nan nan nan nan nan
nan nan nan nan nan nan nan nan nan nan nan nan nan nan nan nan nan nan nan nan nan nan nan nan nan nan nan nan nan nan nan nan nan nan nan nan nan nan nan nan nan -36 nan -30 -30 -28 -17 -13 -13 -8 -6 -5 -6 -6 nan nan nan nan nan nan nan nan nan nan nan nan nan nan nan nan nan nan nan nan nan nan nan nan nan nan nan nan nan nan nan nan
nan nan nan nan nan nan nan nan nan nan nan nan nan nan nan nan nan nan nan nan nan nan nan nan nan nan nan nan nan nan nan nan nan nan nan nan nan nan nan nan nan nan -32 -24 -24 -18 -18 -24 -24 -22 -12 nan nan nan nan nan nan nan nan nan nan nan nan nan nan nan nan nan nan nan nan nan nan nan nan nan nan nan nan nan nan nan nan nan nan nan
nan nan nan nan nan nan nan nan nan nan nan nan nan nan nan nan -11 -11 nan nan nan nan nan nan nan nan nan nan nan nan nan nan nan nan nan nan nan nan nan nan nan nan nan nan nan -28 -25 -32 -32 nan nan nan nan nan nan nan nan nan nan nan nan nan nan nan nan nan nan nan nan nan nan nan nan nan nan nan nan nan nan nan nan nan nan nan nan nan
nan nan nan nan nan nan nan nan nan nan nan nan nan nan nan nan nan nan nan nan nan nan nan nan nan nan nan nan nan nan nan nan nan nan nan nan nan nan nan nan nan nan -19 nan nan nan nan nan nan nan nan nan nan nan nan nan nan nan nan nan nan nan nan nan nan nan nan nan nan nan nan nan nan nan nan nan nan nan nan nan nan nan nan nan nan nan
nan nan nan nan nan nan nan nan nan nan nan nan nan nan nan nan nan nan nan nan nan nan nan nan nan nan nan nan nan nan nan nan nan nan nan nan nan nan nan nan nan -17 -11 nan nan nan nan nan nan nan nan -1 nan nan nan nan nan nan nan nan nan nan nan nan nan nan nan nan nan nan nan nan nan nan nan nan nan nan nan nan nan nan nan nan nan nan
Wind_Speed
1 2 3 3 2 1 1 1 1 2 2 2 2 2 2 2 2 2 2 3 3 2 2 2 1 1 1 2 3 4 4 5 5 6 6 7 8 9 9 10 10 11 11 12 12 13 13 14 14 14 14 15 15 15 15 15 16 16 16 17 17 17 18 18 18 18 18 18 18 18 18 18 18 17 17 17 17 17 17 18 18 18 18 18 19 19
1 2 2 3 2 2 1 1 1 1 1 2 2 2 2 2 2 1 1 2 2 2 1 1 1 1 0 2 3 5 5 6 7 7 8 9 9 10 11 11 11 12 12 13 13 13 14 14 14 15 15 15 15 16 16 16 16 17 17 17 17 18 18 18 18 18 19 19 18 18 18 18 17 17 17 17 17 18 18 18 18 18 19 19 19 20
1 1 1 1 1 1 1 2 2 1 1 1 1 2 2 2 2 1 1 1 1 1 1 1 1 1 1 2 4 6 7 8 8 9 10 10 11 11 12 12 12 12 13 13 13 14 14 14 15 15 15 16 16 16 16 17 17 17 17 18 18 18 18 18 18 18 18 18 18 18 18 17 17 17 17 18 18 18 18 19 19 19 19 20 20 20
1 1 0 0 1 1 1 2 2 2 2 2 1 2 2 2 2 1 1 1 1 1 0 1 1 1 1 2 4 6 8 9 10 11 11 12 12 12 12 13 13 13 13 14 14 14 14 15 15 16 16 16 17 17 17 17 17 18 18 18 18 18 18 18 18 18 18 18 18 18 18 18 18 18 18 18 18 19 19 19 19 19 20 20 20 21
1 1 1 1 1 1 1 1 1 1 2 2 2 2 2 1 1 1 1 1 1 1 1 1 1 2 2 2 4 6 9 10 11 12 12 13 13 13 13 13 13 13 14 14 14 15 15 16 16 16 17 17 17 17 18 18 18 18 18 18 18 18 18 18 18 18 18 18 18 18 18 18 18 18 18 19 19 19 19 19 20 20 20 20 21 21
1 1 1 1 1 1 1 1 1 1 1 1 1 1 1 1 1 1 1 1 2 2 2 2 2 3 3 3 5 7 9 11 11 12 12 13 13 13 13 13 13 14 14 15 15 15 16 16 16 17 17 17 18 18 18 18 18 18 18 18 18 18 18 18 18 18 18 18 18 18 18 18 18 18 19 19 19 19 20 20 20 20 21 21 21 21
1 1 1 1 1 1 1 1 1 1 1 1 0 0 0 1 1 1 2 2 2 2 2 2 3 3 3 4 6 7 8 10 11 11 12 12 13 13 13 13 14 14 15 15 15 16 16 16 17 17 17 18 18 18 18 18 18 18 18 18 18 18 18 18 18 18 18 18 18 18 18 18 18 19 19 19 19 20 20 20 20 20 21 21 21 21
1 1 1 1 1 1 1 1 1 1 1 1 1 1 1 1 1 1 2 2 2 2 2 2 2 3 3 4 5 6 6 7 7 8 9 10 11 11 12 13 14 14 14 15 15 15 16 16 16 17 17 17 18 18 18 18 18 18 18 18 18 18 18 18 18 18 18 18 18 18 18 19 19 19 19 19 20 20 20 20 20 20 21 21 21 22
1 1 1 1 1 1 0 0 1 1 1 1 1 1 1 1 1 1 1 1 2 2 2 2 2 2 3 3 4 4 5 5 5 5 6 6 7 8 9 11 12 13 13 14 14 15 15 15 16 16 17 17 17 18 18 18 18 18 18 18 18 18 19 19 19 19 19 19 19 19 19 19 19 19 19 19 20 20 20 20 20 20 21 21 21 22
1 1 1 1 1 1 1 0 1 1 1 0 1 1 2 2 2 1 1 2 2 2 2 2 2 2 3 2 3 3 4 5 6 7 7 6 6 7 8 9 9 10 12 13 13 14 15 15 16 16 17 17 17 17 18 18 18 18 18 18 18 19 19 19 19 19 19 19 19 19 19 19 19 19 19 19 20 20 20 20 20 20 20 21 21 21
1 1 1 0 0 1 1 0 0 1 1 1 1 1 0 1 2 2 2 2 2 2 2 2 3 3 3 2 2 2 2 3 4 5 6 6 7 7 8 8 9 10 11 12 13 14 14 15 16 16 16 17 17 17 17 17 17 18 18 18 18 19 19 19 19 19 19 19 19 19 19 19 19 19 19 19 19 19 19 20 20 20 20 21 21 21
1 1 1 0 1 1 1 1 1 1 2 1 1 1 2 1 1 2 2 1 1 2 2 2 3 3 3 2 2 1 1 1 1 1 2 3 3 4 5 6 7 8 9 10 11 12 13 14 15 15 15 16 16 16 16 16 17 17 18 18 18 18 18 18 18 18 18 18 18 18 18 18 19 19 19 19 19 19 19 20 20 20 20 20 21 21
0 1 1 1 1 1 1 0 1 1 1 0 1 1 2 1 0 1 1 0 1 1 1 1 1 2 3 3 2 2 1 1 1 0 1 1 1 2 2 3 3 4 5 5 6 7 10 12 13 13 14 14 14 15 16 16 16 17 17 17 17 17 17 17 17 17 17 17 17 17 18 18 18 18 19 19 19 19 20 20 20 20 20 21 21 21
1 1 1 1 0 0 1 1 1 1 1 1 1 1 1 1 1 1 1 1 1 1 0 0 1 1 2 2 1 1 1 1 0 1 1 1 1 1 2 2 3 3 3 3 3 4 7 8 8 9 11 12 13 13 13 14 15 16 16 17 17 17 17 16 16 16 17 17 17 17 17 18 18 18 19 19 20 20 20 20 20 20 21 21 21 22
0 1 1 0 1 1 1 1 1 1 1 1 0 0 1 1 1 1 1 1 2 2 2 1 1 2 2 1 1 1 1 1 1 1 1 2 2 2 2 2 2 2 2 3 3 4 6 6 5 5 7 8 9 11 12 14 15 16 16 16 16 16 16 16 16 16 16 17 17 17 17 18 18 19 19 19 20 20 20 20 21 21 21 21 21 22
0 1 1 1 1 1 1 0 1 0 0 1 1 1 1 1 1 1 1 1 1 2 2 2 2 2 2 2 2 2 2 2 1 1 2 2 2 1 1 1 2 2 2 3 3 4 4 4 5 5 6 8 11 13 15 15 16 16 16 16 16 16 16 16 16 16 16 17 17 17 18 18 18 19 19 20 20 20 20 20 21 21 21 21 22 22
1 1 0 0 1 1 1 1 1 1 1 1 1 1 1 1 1 1 1 1 1 1 1 1 1 2 2 2 3 2 1 2 1 1 2 2 2 2 1 1 2 3 3 3 4 4 4 4 5 5 6 9 12 15 16 16 16 17 17 16 16 16 16 16 17 17 17 17 18 18 18 19 19 19 19 20 20 20 20 20 21 21 21 21 22 22
1 1 1 1 1 1 1 1 1 1 1 1 1 1 1 1 1 1 1 1 1 1 1 0 0 1 1 2 2 2 0 1 1 1 2 3 3 2 1 1 2 3 3 4 4 4 4 4 5 6 8 12 14 15 16 16 16 16 16 16 17 17 17 17 17 17 18 18 18 19 19 19 19 19 19 20 20 20 20 20 21 21 21 21 21 22
1 1 0 0 0 0 0 0 0 0 1 1 0 0 1 1 1 0 0 0 1 1 1 1 1 1 1 2 3 2 1 1 1 1 2 3 3 2 1 1 2 3 4 4 4 4 4 5 7 9 12 14 15 16 16 16 16 16 16 16 17 17 17 17 18 18 18 19 19 19 19 19 19 20 20 20 20 20 20 20 21 21 21 21 21 22
1 1 1 1 1 1 0 0 0 1 1 1 1 1 0 0 1 0 1 1 1 1 1 1 1 1 1 2 3 2 1 1 1 1 2 3 3 3 1 2 3 3 4 4 4 4 4 5 6 8 11 13 14 15 15 15 16 16 16 16 17 17 17 18 18 18 19 19 19 19 20 20 20 20 20 20 20 20 20 20 21 21 21 21 22 22
1 2 2 1 1 1 0 0 1 1 1 2 2 2 1 1 1 1 1 1 1 1 1 0 1 2 1 2 3 3 2 2 2 2 3 3 3 3 2 2 3 3 4 4 4 4 3 4 4 5 7 10 12 14 15 15 16 16 17 17 17 18 18 18 19 19 19 19 20 20 20 20 20 20 20 20 20 20 21 21 21 21 21 21 22 22
1 1 2 0 1 1 1 1 1 1 2 2 2 2 1 1 1 1 1 1 1 1 1 1 2 2 2 2 3 3 2 2 2 2 3 3 3 3 2 2 2 3 4 3 3 2 2 3 3 4 7 10 13 14 16 16 17 17 17 18 18 18 19 19 19 19 20 20 20 20 20 20 20 20 20 20 21 21 21 21 21 21 22 22 22 22
1 0 1 1 1 1 1 1 0 1 2 2 2 2 2 2 1 1 1 0 1 1 2 2 3 3 3 3 4 4 3 3 3 2 2 3 4 3 2 2 2 3 3 3 3 3 3 3 4 5 7 11 13 15 16 17 17 18 18 18 19 19 19 19 20 20 20 20 20 20 20 20 20 20 21 21 21 21 21 22 22 22 22 22 22 22
1 1 0 1 1 1 1 1 1 1 2 2 2 2 2 2 2 2 1 1 1 2 2 3 3 3 3 4 4 4 4 3 3 2 2 3 4 3 2 1 2 3 4 3 3 3 3 4 4 4 5 9 12 14 16 17 17 18 18 19 19 19 20 19 19 19 19 19 19 19 20 20 20 21 21 21 21 22 22 22 22 22 22 22 22 23
1 1 1 1 1 1 1 1 1 2 1 2 2 1 1 1 1 0 0 1 1 2 2 3 3 3 3 3 3 3 3 2 2 2 2 2 3 3 2 1 2 3 4 3 3 3 3 4 4 4 4 7 10 13 15 16 17 18 19 19 19 19 19 19 18 18 18 18 19 19 20 20 21 21 21 22 22 22 22 22 22 22 23 23 23 23
1 1 1 1 1 1 1 1 1 1 0 0 1 1 1 1 0 1 1 1 2 2 3 3 3 3 3 2 2 2 3 2 1 1 1 2 3 3 2 1 2 3 4 4 3 3 4 4 4 4 4 5 8 11 14 16 17 18 18 18 18 18 17 17 17 18 18 18 19 20 20 21 21 22 22 22 22 22 22 22 22 23 23 23 22 22
2 2 2 1 1 1 1 2 2 3 3 3 2 2 1 1 0 1 2 2 2 2 2 3 3 3 3 2 2 2 2 2 1 1 1 2 3 3 3 2 2 3 4 4 3 4 5 5 5 4 4 4 6 9 13 14 15 16 16 16 16 16 17 18 18 19 19 20 20 21 21 21 22 22 22 22 22 22 22 22 22 22 22 21 20 18
4 4 4 4 4 4 4 4 5 5 5 6 6 5 2 1 0 2 3 2 2 2 2 3 3 3 3 3 3 3 2 2 2 2 1 2 3 3 3 2 2 2 3 4 4 4 5 5 5 5 5 5 5 6 9 11 12 13 14 15 16 17 18 19 20 20 21 21 21 21 21 22 22 22 22 22 22 22 22 22 22 22 20 17 14 11
4 4 5 6 6 6 6 6 6 6 7 7 7 6 3 1 1 2 3 2 2 2 3 3 3 3 3 3 3 3 2 3 3 2 1 1 2 3 2 2 2 2 3 4 4 4 4 4 4 4 4 4 4 3 4 6 8 10 11 14 16 17 19 20 20 21 21 21 21 21 21 21 21 21 22 22 22 22 22 22 21 19 15 13 10 9
3 4 5 5 6 6 6 4 4 6 7 8 7 6 3 1 2 2 2 2 2 2 3 3 3 3 3 4 3 3 2 3 2 1 1 0 2 2 2 2 2 2 2 3 4 4 4 3 2 2 2 3 3 3 3 4 5 6 8 11 13 15 17 19 19 20 20 20 21 21 21 21 21 21 21 21 21 21 21 22 20 16 11 9 9 8
3 3 4 4 5 5 4 4 4 4 6 7 6 4 2 2 2 2 2 2 2 2 3 3 3 3 3 3 3 3 2 3 2 1 2 0 1 2 2 2 2 2 1 1 3 4 5 3 2 1 1 3 4 4 4 5 5 5 5 7 8 10 14 16 17 18 18 19 19 20 20 20 20 21 21 21 21 21 22 22 20 15 10 9 8 9
3 3 3 3 3 3 3 3 3 3 4 4 3 3 3 3 3 3 3 3 3 2 2 3 3 3 3 3 3 3 3 3 2 2 2 1 2 2 1 2 2 2 1 1 2 3 5 4 3 2 3 4 4 4 5 5 5 5 5 6 6 7 11 13 14 15 15 16 17 18 19 19 20 20 21 21 21 22 22 22 20 16 10 8 8 9
3 2 2 2 2 2 2 3 3 3 3 3 3 3 3 3 4 4 3 3 3 3 2 3 3 3 3 4 4 4 4 3 4 4 4 3 2 2 2 2 3 3 2 2 3 3 4 5 5 5 4 4 4 4 4 5 5 5 5 5 5 6 9 10 10 10 11 12 13 14 16 18 19 19 20 21 21 21 21 22 20 17 13 9 8 9
3 3 2 2 2 2 2 2 2 3 3 3 3 3 3 3 4 4 4 3 3 3 3 3 3 4 4 4 4 5 4 4 4 5 5 3 3 3 3 3 4 4 4 3 3 4 5 5 6 6 6 5 4 4 4 4 5 5 4 5 5 5 6 6 7 7 9 9 9 9 11 12 14 16 17 18 19 19 20 20 20 19 18 13 11 9
3 3 2 2 2 2 2 2 2 3 3 3 3 3 4 3 3 4 4 4 4 3 3 3 4 4 4 4 5 5 5 4 4 4 5 4 3 3 4 3 4 4 4 4 4 4 4 6 7 7 7 6 5 4 4 4 4 4 4 4 4 4 5 5 5 7 8 8 8 8 8 8 9 10 12 14 16 18 19 20 21 21 21 19 16 13
2 3 3 3 3 3 3 3 3 3 3 3 3 3 3 3 3 4 4 4 4 4 4 4 4 4 4 5 5 6 6 5 4 5 5 4 3 3 4 4 4 4 4 5 5 5 5 6 8 8 8 8 7 5 4 3 3 3 4 4 5 5 5 5 6 6 7 8 8 8 7 7 7 8 9 13 16 18 20 20 21 21 21 21 20 18
2 3 3 3 3 4 4 4 3 3 3 3 3 3 3 3 4 4 4 4 4 4 4 4 5 5 5 5 5 5 6 5 5 5 6 4 3 3 4 4 4 4 4 5 5 6 6 7 8 8 8 7 6 6 5 4 4 4 5 5 5 5 6 6 6 6 6 7 8 8 8 8 8 8 9 13 15 17 18 19 20 20 21 21 21 21
3 3 3 3 3 3 3 3 3 3 3 3 3 3 4 4 4 4 4 4 4 4 4 4 4 4 6 6 6 6 6 6 6 6 7 5 4 4 5 5 5 5 5 5 5 6 6 7 8 8 7 7 7 7 8 7 6 7 6 6 6 6 6 5 5 5 5 7 8 9 9 9 8 8 9 10 10 10 11 11 12 15 17 17 19 20
3 4 4 4 3 3 3 3 3 3 3 3 4 4 4 4 3 3 3 3 3 3 3 3 3 3 4 4 5 6 7 7 7 7 7 6 5 5 6 6 6 6 5 5 5 6 6 7 7 7 7 7 8 8 7 7 7 8 8 8 7 6 5 5 5 5 5 6 7 9 9 8 7 7 7 7 7 7 7 7 8 10 10 10 12 15
4 4 4 4 4 3 3 3 3 3 3 3 4 4 3 2 2 1 2 2 2 2 2 3 3 3 3 4 5 6 7 6 7 7 6 6 5 5 6 6 7 6 6 5 5 5 6 7 8 8 8 8 8 8 7 7 8 8 10 8 7 6 5 5 5 5 5 5 6 7 7 7 7 7 8 7 7 7 7 6 7 8 8 7 7 8
4 4 4 3 3 3 3 3 3 3 3 2 2 2 2 1 1 1 1 1 1 1 1 2 2 3 4 4 4 5 6 6 6 7 5 6 6 6 6 6 6 6 6 6 6 6 6 7 8 8 8 8 9 10 10 9 10 11 11 10 9 8 8 8 7 6 5 5 5 6 7 8 9 9 8 8 8 7 7 7 8 8 9 7 7 7
5 4 4 3 3 3 2 2 3 3 3 2 2 2 2 2 1 1 2 2 1 1 1 1 2 3 4 4 5 5 5 5 6 6 6 7 7 7 6 6 6 6 6 6 7 7 7 7 8 8 8 8 8 9 10 10 10 10 10 10 10 11 10 8 6 4 4 5 6 6 8 8 8 8 9 9 8 8 8 8 10 11 11 9 7 7
4 4 3 3 3 3 3 3 3 3 2 2 2 3 3 2 2 2 2 2 2 2 2 2 3 4 5 5 5 4 4 5 5 6 6 6 7 7 7 7 7 6 6 6 7 7 7 8 8 8 8 8 8 9 11 10 10 9 9 9 10 10 8 7 5 4 5 6 7 7 7 8 8 8 8 9 8 8 8 10 11 12 12 10 8 8
4 4 3 3 3 3 2 3 3 2 2 2 2 3 3 3 3 3 3 2 2 2 2 2 3 3 5 5 5 4 4 4 4 5 6 6 6 6 6 7 7 7 6 6 6 6 7 7 8 7 7 7 8 9 10 10 10 10 9 9 9 9 9 8 8 8 8 8 8 7 7 7 7 8 8 8 8 8 8 8 9 9 10 10 9 9
4 3 3 3 3 3 3 3 3 3 3 3 3 3 3 3 3 3 3 3 3 3 3 2 3 3 4 4 4 4 4 4 3 4 4 6 7 8 7 6 6 6 6 6 6 6 6 7 7 7 7 7 8 9 10 10 10 10 10 10 10 10 10 9 9 10 10 9 9 8 7 7 7 8 9 9 9 9 8 9 9 9 10 9 9 9
3 3 3 2 2 2 3 3 3 3 3 3 3 3 3 3 3 3 3 3 3 3 3 3 3 3 4 5 5 4 4 4 4 3 3 4 4 5 5 5 5 5 5 6 6 7 7 7 7 8 8 8 9 9 10 10 10 10 10 10 10 10 10 9 9 9 9 9 9 9 8 7 7 8 9 10 10 10 9 9 9 10 10 9 9 10
3 3 3 3 2 3 3 3 3 3 3 3 3 3 3 3 3 2 3 3 3 3 3 3 3 3 5 5 5 5 5 5 5 4 4 4 4 4 4 4 5 6 6 6 7 7 8 8 7 7 8 9 10 10 10 9 9 10 10 10 10 9 9 9 8 8 9 9 8 8 7 6 7 8 10 11 11 11 10 9 9 9 9 9 10 10
4 4 4 3 3 3 3 3 3 3 3 4 4 3 3 3 3 3 3 3 3 3 3 3 3 4 5 5 5 5 6 6 6 5 5 4 4 4 4 4 4 5 6 7 7 8 8 8 8 8 8 9 10 11 11 9 9 9 9 9 9 10 10 10 9 8 8 7 7 7 6 6 7 9 11 12 12 11 11 10 9 9 9 9 10 10
3 4 4 4 4 4 4 3 4 4 4 4 4 3 3 4 5 5 4 3 3 3 3 3 4 4 5 5 5 5 5 6 6 5 5 4 4 4 4 4 4 5 5 5 6 6 6 7 8 8 8 9 10 10 11 10 9 9 9 9 9 9 10 10 9 8 7 7 7 7 6 6 7 8 9 12 13 13 13 11 11 10 9 9 9 10
3 3 3 3 4 4 4 4 4 4 4 4 4 3 3 3 3 3 3 3 3 3 3 3 4 4 5 5 5 5 5 5 5 5 5 4 4 4 4 4 4 5 5 4 4 4 4 5 6 7 9 10 10 10 10 9 9 8 8 8 8 8 8 9 8 7 7 8 8 8 7 7 7 7 9 11 13 14 14 13 11 10 9 9 9 10
3 3 3 3 3 4 4 4 4 4 4 4 4 4 3 3 3 3 3 3 3 3 3 3 4 4 5 6 6 6 5 5 5 5 5 4 4 4 4 4 4 5 5 4 4 4 4 4 5 5 7 10 11 10 7 7 7 7 7 6 6 6 6 7 7 7 8 8 8 8 8 9 9 9 9 10 12 13 14 13 12 11 9 9 9 10
Wind_Direction
13 349 340 355 12 41 51 79 100 109 109 99 91 81 79 73 62 61 83 89 91 94 97 92 82 80 123 187 195 198 201 205 210 215 221 227 231 235 239 242 244 247 249 251 252 254 256 258 260 262 264 267 268 270 271 272 273 274 275 275 275 275 275 275 276 276 276 276 276 276 277 278 279 280 281 281 281 281 280 280 280 280 279 279 278 277
26 3 348 354 8 25 24 20 45 95 125 127 125 119 110 98 82 63 59 76 91 101 111 113 109 108 132 223 225 226 227 230 232 235 237 240 242 244 246 248 249 251 253 254 256 258 260 262 264 266 268 269 270 271 272 273 274 275 275 276 276 276 276 276 277 277 277 278 278 278 279 280 281 281 281 281 280 280 280 279 279 279 278 277 277 277
97 46 353 345 3 26 24 3 4 18 63 101 124 132 129 124 119 111 101 103 108 110 122 133 139 153 188 234 241 242 242 244 244 245 245 246 248 249 250 251 253 254 256 258 260 261 263 265 267 268 270 271 271 272 273 273 274 274 274 275 275 275 275 275 276 276 276 277 277 278 279 279 280 280 279 279 279 278 278 278 277 277 277 276 276 276
140 137 151 328 21 42 39 15 9 11 18 32 64 99 119 126 129 133 139 146 148 156 171 162 166 175 193 226 241 245 247 248 248 248 248 249 250 250 252 253 255 257 259 261 263 265 266 268 269 270 271 271 272 272 272 273 273 273 273 273 273 273 273 273 273 273 273 274 275 276 276 277 277 277 277 277 277 277 277 277 276 276 276 276 276 276
147 148 161 157 113 83 59 41 36 33 27 24 33 53 89 113 127 131 138 152 168 182 200 200 199 197 201 213 233 241 245 247 248 248 248 249 250 251 253 255 257 259 261 263 265 267 268 269 270 271 271 272 272 272 272 272 272 272 272 271 271 270 270 270 270 270 270 271 272 273 274 274 275 275 276 276 276 276 276 276 276 276 276 276 276 276
142 144 153 146 136 131 137 134 121 101 68 45 33 33 57 119 135 141 154 175 188 196 201 206 206 207 206 210 226 235 241 244 246 247 248 249 251 252 254 257 259 261 264 266 267 269 269 270 271 271 272 272 272 273 273 272 272 272 271 271 270 269 269 269 268 269 269 270 270 271 272 273 273 274 274 275 275 275 275 276 276 276 277 276 276 276
122 122 127 118 123 134 150 164 166 161 141 120 100 65 238 198 176 171 177 187 196 202 206 207 207 208 210 214 224 232 238 242 245 246 248 250 252 254 257 260 262 264 266 267 268 269 270 271 272 272 273 273 273 273 273 273 273 273 272 272 271 270 269 269 269 269 269 269 270 271 271 272 273 273 274 274 274 274 275 275 276 276 276 277 277 276
119 120 123 116 117 121 137 179 190 186 173 159 159 179 219 219 212 203 197 197 201 205 207 209 212 214 216 218 223 228 233 239 242 245 247 250 253 256 259 262 264 266 268 269 270 272 272 273 274 275 275 275 275 275 275 275 275 274 274 273 272 272 271 270 270 270 270 270 270 270 271 271 272 272 273 273 273 274 274 275 275 275 276 276 276 276
127 141 161 157 148 139 133 248 252 239 202 168 167 176 188 201 213 225 228 224 219 213 205 206 217 227 230 226 224 224 226 226 227 231 236 241 246 252 258 263 266 269 272 273 275 276 277 278 278 279 279 278 278 278 277 277 276 276 275 275 274 273 273 272 272 272 271 271 271 271 271 272 272 272 272 273 273 273 274 274 274 275 275 276 276 276
113 132 160 181 163 145 134 210 273 288 309 262 184 181 174 177 185 199 217 230 232 226 210 205 215 230 243 241 233 226 224 225 227 231 235 244 247 249 257 264 268 272 276 277 279 280 282 282 282 282 281 281 280 280 279 278 277 277 276 276 275 274 274 274 273 273 273 273 273 273 273 273 273 273 273 273 273 273 273 273 274 274 275 275 275 276
91 106 115 35 28 62 92 128 277 306 343 350 343 323 209 164 165 173 194 217 226 227 219 214 216 222 233 248 248 236 221 228 237 243 250 261 264 266 272 274 276 277 279 279 280 281 282 282 282 281 281 280 279 279 278 277 277 276 276 275 275 274 274 274 274 274 274 274 274 274 274 274 274 273 273 273 273 273 273 273 274 274 274 275 275 275
109 108 96 69 44 41 52 34 356 349 3 360 342 322 311 306 145 146 162 195 215 222 221 224 224 222 219 225 233 238 222 227 246 267 282 289 293 292 289 285 282 281 279 279 279 280 280 280 280 279 279 278 277 276 275 275 275 274 274 274 274 274 274 274 274 274 274 274 274 274 274 274 274 274 274 274 274 274 274 274 274 274 274 274 275 275
71 84 84 79 77 81 83 58 11 356 351 310 266 263 273 292 3 98 113 165 223 224 212 227 243 244 231 218 213 210 208 218 237 290 340 328 319 307 294 285 279 275 274 275 275 275 276 277 277 277 277 276 276 275 274 274 274 274 273 273 273 273 273 273 273 273 273 273 273 274 274 275 275 276 276 276 276 276 276 276 276 276 275 275 275 275
24 44 57 53 64 188 163 160 174 208 230 227 224 225 236 294 21 47 47 339 295 275 239 301 290 280 269 257 236 197 169 159 37 357 342 307 283 271 269 267 263 259 259 262 264 266 268 272 274 275 275 275 275 275 274 274 274 274 274 273 273 273 272 272 272 272 272 272 273 274 274 276 276 277 278 278 278 278 278 278 277 277 277 276 276 276
74 74 71 286 252 236 206 184 186 198 221 242 266 349 24 19 27 36 36 334 319 328 1 354 327 303 295 316 340 15 84 76 50 357 321 291 269 254 249 258 259 258 256 261 263 264 265 268 270 271 271 269 270 271 272 274 274 274 274 273 273 273 272 272 272 272 272 273 274 275 276 277 278 278 279 279 279 279 279 279 279 278 278 277 277 276
111 110 137 231 257 260 246 178 133 99 18 359 11 24 37 21 18 23 37 345 338 348 3 354 337 321 310 330 343 0 51 64 54 343 301 285 274 255 228 259 271 272 266 266 267 267 265 266 266 267 266 266 267 269 270 272 273 273 273 273 273 273 273 273 273 273 274 274 275 277 277 278 279 279 279 279 279 279 280 279 279 279 278 277 277 276
38 64 100 297 311 320 328 16 49 59 42 19 16 22 39 27 20 23 30 10 3 1 1 1 342 321 310 320 329 342 36 72 74 299 284 280 275 265 229 257 269 273 270 267 266 266 265 265 266 266 265 265 266 268 269 271 272 273 273 274 274 274 274 274 275 275 275 276 277 278 279 279 279 279 279 279 279 279 279 279 279 278 278 277 277 276
20 28 31 22 7 354 350 13 33 48 57 42 25 12 12 12 22 32 33 28 15 354 328 336 275 264 289 302 301 301 12 107 122 266 279 278 275 269 246 249 260 266 268 267 265 262 259 258 258 258 260 263 265 266 269 270 272 273 274 275 276 276 276 276 276 276 277 277 278 279 279 279 279 279 279 279 279 279 279 279 278 278 278 277 277 277
351 2 37 41 116 121 37 37 71 96 99 118 99 48 358 341 348 17 356 197 197 201 211 235 241 241 245 266 274 276 241 135 143 265 278 278 276 271 257 258 264 267 267 266 264 260 254 253 253 255 258 261 264 267 270 273 275 277 278 278 279 279 279 278 278 278 278 278 278 279 279 279 279 279 279 279 279 279 279 279 278 278 278 278 278 277
327 306 238 190 159 128 100 228 189 165 158 150 130 110 74 327 331 324 265 251 228 201 172 190 231 250 249 265 275 281 283 53 17 309 280 278 276 273 261 261 268 271 269 266 260 254 250 248 252 257 259 263 267 272 275 278 280 281 282 282 283 282 282 281 281 280 280 279 279 279 279 279 280 280 280 280 280 280 280 280 280 280 279 279 279 278
329 298 265 203 141 116 124 230 220 183 146 110 91 76 52 15 356 343 321 340 353 4 21 343 261 254 257 275 285 292 312 349 338 313 290 282 277 271 259 255 259 265 267 264 259 253 249 250 252 256 262 271 277 280 283 285 286 286 286 286 286 286 285 285 284 283 281 281 280 280 280 280 280 280 280 280 280 281 281 281 281 281 280 280 280 279
343 298 283 261 112 112 135 192 198 132 105 96 92 88 85 62 19 346 332 359 4 354 335 288 269 267 279 287 290 292 302 307 297 287 290 285 279 272 254 246 251 258 264 266 265 263 263 267 269 272 278 284 287 289 290 289 289 289 289 289 289 288 288 287 286 284 283 282 281 281 280 280 280 280 280 280 281 281 281 281 281 281 281 280 280 279
137 267 301 46 88 106 124 134 114 86 89 102 119 140 155 149 155 183 248 282 304 299 292 286 285 287 290 290 289 285 279 263 253 254 268 276 278 275 256 247 255 264 267 273 280 285 286 283 281 282 286 289 290 290 290 290 289 290 290 290 290 289 289 288 286 285 284 283 282 281 281 280 280 280 280 280 281 281 281 281 281 281 281 280 280 279
133 132 95 84 95 107 117 107 91 75 79 98 116 140 157 160 167 179 196 219 256 275 280 287 289 288 283 278 276 273 265 252 237 230 244 265 272 274 264 262 272 277 276 277 281 285 288 284 280 279 282 285 286 287 288 288 289 290 290 290 290 289 289 287 286 285 283 283 282 281 281 281 281 281 281 281 281 281 281 281 281 281 281 281 280 280
119 114 107 97 95 96 96 91 87 85 84 96 107 121 141 156 171 208 268 278 276 275 274 277 279 280 282 281 281 279 274 263 233 207 224 260 271 273 265 264 275 281 282 281 281 283 285 282 280 277 276 280 283 285 287 288 289 289 289 289 289 288 287 287 286 286 285 285 284 284 284 283 283 283 283 283 283 282 282 282 282 282 282 282 281 281
59 63 60 54 57 61 61 58 55 50 27 110 134 142 146 114 29 343 319 294 278 271 271 274 278 284 292 300 298 293 292 299 279 198 206 267 283 286 281 277 276 281 286 287 287 286 285 283 281 279 278 279 282 284 285 286 287 287 287 288 289 290 290 291 292 291 291 290 289 288 287 287 286 285 285 285 284 284 284 283 283 283 283 283 282 281
336 334 338 341 337 325 307 299 294 291 290 281 264 238 188 126 49 311 288 278 271 269 273 282 289 295 302 298 288 283 290 304 302 274 237 283 289 290 290 290 289 289 291 290 288 286 286 286 286 285 283 279 280 281 282 284 287 289 290 294 297 298 299 298 297 297 294 293 291 290 289 288 287 287 286 285 285 285 284 284 284 284 284 284 283 281
312 308 302 294 286 279 275 275 276 278 279 278 274 269 252 192 242 273 273 277 283 288 288 291 295 297 298 290 283 281 287 288 283 276 272 280 279 280 286 295 299 297 299 295 291 287 284 282 282 281 279 275 274 277 280 288 295 300 304 304 305 304 301 299 297 295 293 292 290 289 289 288 287 287 286 286 286 285 285 286 286 285 285 284 282 280
290 287 283 279 275 272 270 272 272 272 272 272 272 271 266 226 224 244 258 268 281 287 284 283 283 285 287 289 289 287 284 273 268 266 264 272 271 275 287 305 312 313 316 308 301 291 277 269 266 267 270 274 278 286 293 305 310 311 311 306 302 299 296 294 293 291 290 289 289 288 288 288 288 287 287 287 287 287 287 287 287 287 286 284 282 280
264 263 264 264 263 262 260 260 261 262 263 264 265 265 255 210 198 213 230 237 250 259 264 268 271 276 285 293 296 294 284 272 271 277 81 344 281 282 302 314 315 321 339 324 312 301 287 268 253 251 270 291 303 312 313 316 313 308 304 299 295 292 290 289 288 288 288 288 288 288 288 288 288 289 289 289 289 289 290 290 290 290 287 285 282 280
235 234 238 243 245 245 240 236 238 245 252 256 257 253 232 197 190 197 206 207 214 227 243 255 264 272 282 291 295 293 286 279 281 300 72 28 284 282 305 306 304 306 347 337 316 306 302 294 276 265 305 316 315 311 307 301 297 292 288 286 284 283 283 285 286 287 288 288 289 289 289 290 291 291 291 292 292 292 292 292 292 291 288 285 282 280
237 231 232 233 231 227 223 220 221 226 237 243 240 228 207 199 198 199 199 195 194 202 224 248 262 270 274 276 277 278 279 281 292 313 6 319 289 283 292 293 294 296 302 297 291 293 297 299 300 302 309 304 299 294 289 284 280 278 276 276 276 278 281 284 286 287 288 289 290 290 291 292 293 294 294 294 293 293 292 292 291 290 287 284 281 279
259 255 252 248 239 226 213 208 207 210 216 220 220 216 210 209 208 207 203 196 194 198 217 244 261 270 273 270 270 271 274 280 295 307 315 305 292 289 293 293 296 297 299 288 276 274 278 287 294 299 297 291 286 282 279 276 274 271 271 273 275 279 282 285 286 288 289 290 291 293 294 294 294 294 293 293 292 291 291 290 289 287 284 282 280 279
254 257 260 265 264 255 235 219 212 210 211 213 214 213 212 213 214 214 212 209 208 212 220 238 253 265 271 272 271 271 273 276 290 302 311 306 297 293 296 295 296 298 300 293 284 278 274 280 287 294 295 292 286 281 279 277 274 270 266 268 273 279 284 287 289 290 291 292 293 293 294 293 292 292 291 290 290 289 288 288 287 286 286 284 283 283
247 251 255 259 259 256 252 245 235 226 221 220 218 216 213 213 216 218 219 219 220 221 225 230 239 248 257 265 271 274 276 277 290 302 309 306 301 297 296 292 293 296 296 291 288 286 283 284 287 291 295 295 293 286 277 273 272 271 269 270 275 280 285 289 291 292 292 292 291 290 289 288 287 287 287 287 287 287 288 288 288 288 287 286 285 285
240 247 250 250 250 249 248 245 241 238 234 233 229 223 218 216 218 221 223 224 225 227 229 227 229 232 239 249 260 269 276 281 289 295 297 296 295 293 289 286 288 291 290 288 287 287 287 288 289 290 291 293 294 293 286 279 279 281 285 283 283 283 284 284 286 287 288 288 287 286 286 285 284 283 284 287 288 289 289 290 290 289 288 286 285 283
235 244 247 244 242 241 242 240 239 239 240 241 239 234 227 223 224 225 227 227 229 231 232 232 233 235 237 241 250 261 273 280 287 289 290 290 288 285 282 283 285 285 284 285 288 289 290 291 291 290 288 287 289 294 299 301 298 293 289 288 286 284 281 280 278 277 280 281 283 284 286 286 286 286 287 289 290 291 291 290 289 288 286 285 283 281
241 247 249 243 238 234 234 234 234 235 234 235 237 237 233 229 227 226 228 227 227 229 232 235 240 245 249 257 263 271 280 286 289 290 290 289 286 282 280 282 281 279 276 280 284 288 290 290 292 293 291 286 286 290 297 302 302 299 294 291 287 283 280 277 274 273 274 279 283 286 288 289 290 290 290 290 289 289 287 286 284 283 283 282 281 280
244 245 246 241 234 228 225 226 227 226 224 225 228 230 232 230 227 225 223 221 220 219 220 227 236 247 255 265 274 280 283 284 284 283 281 278 276 274 275 277 277 276 274 272 275 278 280 282 284 287 291 292 292 292 294 296 298 299 300 297 291 283 276 276 276 278 279 283 286 289 289 289 288 288 286 285 284 283 282 282 281 280 281 281 281 279
242 243 241 237 230 223 220 222 221 221 219 223 226 227 226 224 225 228 229 224 219 218 220 230 242 253 261 267 271 272 273 273 271 269 267 263 259 259 262 266 270 272 272 268 266 267 269 273 276 278 282 287 291 293 295 294 295 298 301 301 299 295 292 291 288 285 283 282 284 286 288 287 285 283 282 282 281 280 280 281 281 280 279 278 279 279
240 243 243 242 238 232 226 222 219 217 213 213 214 215 211 204 211 239 255 252 248 248 257 268 273 275 273 269 266 264 264 263 262 260 256 251 249 250 253 258 263 268 270 268 265 263 262 267 271 275 277 281 285 287 288 290 293 296 299 297 296 296 299 296 293 289 286 283 282 283 286 287 287 285 283 282 280 277 276 277 278 278 277 272 270 271
242 244 246 247 247 246 242 238 232 224 210 201 202 205 204 200 208 223 237 243 249 256 268 282 284 283 281 275 269 265 263 263 262 259 255 248 244 244 249 254 258 262 266 267 266 263 260 263 268 272 275 279 283 286 287 288 290 292 292 293 295 298 297 293 290 287 289 288 286 284 285 286 286 285 283 282 280 278 276 274 274 274 275 273 269 264
241 241 238 239 240 241 243 248 247 240 223 212 210 211 210 205 206 214 224 228 235 244 255 262 268 273 276 276 275 271 266 263 262 261 258 250 243 242 245 249 252 254 258 263 266 266 263 262 264 267 272 277 280 282 285 289 290 290 288 291 296 300 300 298 297 296 292 288 286 285 283 283 283 283 282 282 281 280 278 276 274 274 273 273 271 267
239 237 231 230 229 229 234 238 239 238 233 230 228 227 224 215 211 211 218 224 233 242 251 256 261 267 272 276 278 279 277 269 263 260 260 258 252 247 250 249 249 250 249 255 262 268 270 268 266 267 272 275 277 279 282 286 288 290 290 291 291 290 287 293 299 301 296 291 288 286 283 284 285 285 284 283 282 281 280 278 275 273 272 271 270 269
233 232 230 231 231 230 231 233 233 231 230 231 232 232 231 220 212 211 216 227 237 243 245 250 262 271 273 276 280 283 284 280 275 271 268 270 272 272 268 261 256 251 248 250 256 263 271 274 276 276 276 274 273 275 278 283 287 289 289 289 287 284 280 285 291 294 293 292 290 288 285 286 287 288 288 286 285 283 281 280 280 278 276 274 272 271
234 235 239 241 242 243 244 240 237 234 233 234 234 232 229 217 209 209 217 228 237 244 245 243 253 266 275 280 285 288 290 288 285 283 281 278 277 277 274 270 265 261 257 256 256 258 262 269 275 280 282 279 275 273 274 280 284 287 288 288 287 285 284 284 285 286 287 288 289 289 289 290 291 290 290 290 289 287 283 281 280 280 279 277 274 272
242 245 247 247 248 250 250 248 246 243 242 240 237 232 225 214 209 213 224 229 235 242 248 246 250 258 268 277 284 289 292 293 293 292 289 285 280 276 274 274 271 268 265 263 261 259 258 261 266 272 279 282 281 279 276 277 279 282 284 287 287 286 284 283 283 282 283 284 287 290 296 298 296 293 291 291 290 289 286 282 279 277 277 276 275 274
244 246 248 246 244 245 247 247 247 247 246 246 243 237 227 220 222 228 237 233 235 241 247 249 254 260 267 273 279 284 288 290 292 293 292 290 288 285 283 281 277 272 268 266 264 263 261 260 259 261 267 273 277 279 280 278 277 277 280 283 284 284 283 282 283 284 284 284 286 289 295 297 297 297 297 295 293 289 286 284 280 277 274 274 273 273
239 243 247 245 244 243 243 241 242 244 247 249 249 246 239 234 237 240 243 238 237 239 242 250 258 266 271 275 277 281 283 285 287 289 290 290 290 290 287 285 282 279 275 269 266 265 264 262 257 253 253 258 265 271 276 276 275 275 276 278 279 281 282 284 285 287 289 289 289 290 291 292 292 294 296 294 291 289 288 286 282 278 275 273 271 271
236 242 247 249 250 249 247 243 243 244 248 250 251 250 247 241 237 237 238 238 239 241 244 250 258 266 272 276 278 280 281 282 283 285 286 288 290 291 289 288 286 285 283 278 275 273 275 272 263 253 245 245 250 258 269 273 274 275 274 274 275 278 282 285 288 292 294 294 295 295 295 292 291 289 289 288 288 288 288 286 283 280 277 275 273 271
239 243 251 256 259 260 259 254 251 250 250 251 252 252 251 248 244 240 236 237 240 244 247 249 255 262 270 275 278 280 279 280 282 283 285 287 288 288 287 287 287 288 289 290 292 293 294 293 286 272 253 244 244 248 259 268 275 279 278 276 276 280 284 288 291 295 297 297 297 297 296 293 290 287 285 285 286 287 287 286 284 282 280 279 277 275